| time (UTC) | temp F | wind direction | speed MPH | gust MPH | rain 1hr in | rain 24hr in | rain mn in | humidity % | barometer mb |
| 20260507144029 | 66 | 231 | 0.0 | 0.0 | 0.00 | 0.00 | 0.00 | 52 | 1018.7 |
| 20260507143503 | 66 | 146 | 0.0 | 0.0 | 0.00 | 0.00 | 0.00 | 56 | 1018.7 |
| 20260507142938 | 65 | 208 | 0.0 | 0.0 | 0.00 | 0.00 | 0.00 | 59 | 1018.7 |
| 20260507142410 | 64 | 99 | 0.0 | 0.0 | 0.00 | 0.00 | 0.00 | 62 | 1018.6 |
| 20260507141844 | 64 | 179 | 0.0 | 0.0 | 0.00 | 0.00 | 0.00 | 62 | 1018.7 |
| 20260507141319 | 63 | 148 | 0.0 | 0.0 | 0.00 | 0.00 | 0.00 | 62 | 1018.7 |
| 20260507140753 | 62 | 142 | 0.0 | 0.0 | 0.00 | 0.00 | 0.00 | 64 | 1018.6 |
| 20260507140240 | 62 | 182 | 0.0 | 0.0 | 0.00 | 0.00 | 0.00 | 68 | 1018.7 |
| 20260507135741 | 60 | 202 | 0.0 | 0.0 | 0.00 | 0.00 | 0.00 | 68 | 1018.7 |
| 20260507135214 | 59 | 232 | 0.0 | 0.0 | 0.00 | 0.00 | 0.00 | 70 | 1018.7 |
| 20260507134658 | 58 | 214 | 0.0 | 0.0 | 0.00 | 0.00 | 0.00 | 73 | 1018.7 |
| 20260507134159 | 57 | 62 | 0.0 | 0.0 | 0.00 | 0.00 | 0.00 | 70 | 1018.8 |
| 20260507133653 | 57 | 93 | 0.0 | 0.0 | 0.00 | 0.00 | 0.00 | 68 | 1018.8 |
| 20260507133129 | 58 | 115 | 0.0 | 0.0 | 0.00 | 0.00 | 0.00 | 68 | 1018.8 |
| 20260507133051 | 58 | 110 | 0.0 | 0.0 | 0.00 | 0.00 | 0.00 | 71 | 1018.8 |
| 20260507132100 | 58 | 102 | 0.0 | 1.0 | 0.00 | 0.00 | 0.00 | 73 | 1018.9 |
| 20260507131556 | 57 | 107 | 0.0 | 1.0 | 0.00 | 0.00 | 0.00 | 72 | 1018.8 |
| 20260507131520 | 57 | 107 | 0.0 | 1.0 | 0.00 | 0.00 | 0.00 | 74 | 1018.8 |
| 20260507130527 | 56 | 107 | 0.0 | 0.0 | 0.00 | 0.00 | 0.00 | 77 | 1018.8 |
| 20260507130009 | 56 | 107 | 0.0 | 1.0 | 0.00 | 0.00 | 0.00 | 78 | 1018.8 |
| 20260507125507 | 55 | 107 | 0.0 | 1.0 | 0.00 | 0.00 | 0.00 | 79 | 1018.6 |
| 20260507124940 | 55 | 107 | 0.0 | 1.0 | 0.00 | 0.00 | 0.00 | 80 | 1018.7 |
| 20260507124926 | 55 | 107 | 0.0 | 0.0 | 0.00 | 0.00 | 0.00 | 83 | 1018.7 |
| 20260507123907 | 54 | 107 | 0.0 | 0.0 | 0.00 | 0.00 | 0.00 | 87 | 1018.6 |
| 20260507123339 | 53 | 107 | 0.0 | 0.0 | 0.00 | 0.00 | 0.00 | 90 | 1018.6 |
| 20260507123254 | 51 | 107 | 0.0 | 0.0 | 0.00 | 0.00 | 0.00 | 91 | 1018.4 |
| 20260507122246 | 50 | 106 | 0.0 | 0.0 | 0.00 | 0.00 | 0.00 | 93 | 1018.3 |
| 20260507121719 | 48 | 106 | 0.0 | 0.0 | 0.00 | 0.00 | 0.00 | 93 | 1018.3 |
| 20260507121657 | 47 | 106 | 0.0 | 0.0 | 0.00 | 0.00 | 0.00 | 93 | 1018.3 |
| 20260507121132 | 46 | 106 | 0.0 | 0.0 | 0.00 | 0.00 | 0.00 | 94 | 1018.3 |
| 20260507120148 | 44 | 106 | 0.0 | 0.0 | 0.00 | 0.00 | 0.00 | 94 | 1018.2 |
| 20260507115643 | 42 | 106 | 0.0 | 0.0 | 0.00 | 0.00 | 0.00 | 94 | 1018.2 |
| 20260507115141 | 41 | 106 | 0.0 | 0.0 | 0.00 | 0.00 | 0.00 | 94 | 1018.1 |
| 20260507114615 | 40 | 106 | 0.0 | 0.0 | 0.00 | 0.00 | 0.00 | 94 | 1018.1 |
| 20260507114049 | 39 | 106 | 0.0 | 0.0 | 0.00 | 0.00 | 0.00 | 93 | 1018.1 |
| 20260507113521 | 38 | 106 | 0.0 | 0.0 | 0.00 | 0.00 | 0.00 | 93 | 1018.2 |
| 20260507113019 | 38 | 106 | 0.0 | 0.0 | 0.00 | 0.00 | 0.00 | 93 | 1018.2 |
| 20260507112453 | 38 | 106 | 0.0 | 0.0 | 0.00 | 0.00 | 0.00 | 93 | 1018.3 |
| 20260507111925 | 38 | 106 | 0.0 | 0.0 | 0.00 | 0.00 | 0.00 | 93 | 1018.2 |
| 20260507111858 | 38 | 106 | 0.0 | 0.0 | 0.00 | 0.00 | 0.00 | 93 | 1018.1 |
| 20260507110858 | 38 | 106 | 0.0 | 0.0 | 0.00 | 0.00 | 0.00 | 93 | 1018.0 |
| 20260507110330 | 38 | 106 | 0.0 | 0.0 | 0.00 | 0.00 | 0.00 | 92 | 1017.9 |
| 20260507110246 | 38 | 106 | 0.0 | 0.0 | 0.00 | 0.00 | 0.00 | 92 | 1017.9 |
| 20260507105242 | 38 | 106 | 0.0 | 0.0 | 0.00 | 0.00 | 0.00 | 92 | 1017.9 |
| 20260507104719 | 38 | 105 | 0.0 | 0.0 | 0.00 | 0.00 | 0.00 | 92 | 1017.8 |
| 20260507104207 | 38 | 106 | 0.0 | 0.0 | 0.00 | 0.00 | 0.00 | 92 | 1017.9 |
| 20260507103706 | 38 | 106 | 0.0 | 0.0 | 0.00 | 0.00 | 0.00 | 92 | 1017.8 |
| 20260507103203 | 38 | 106 | 0.0 | 0.0 | 0.00 | 0.00 | 0.00 | 92 | 1017.9 |
| 20260507102638 | 38 | 106 | 0.0 | 0.0 | 0.00 | 0.00 | 0.00 | 91 | 1017.8 |
| 20260507102134 | 39 | 106 | 0.0 | 0.0 | 0.00 | 0.00 | 0.00 | 91 | 1017.8 |
| 20260507101635 | 39 | 106 | 0.0 | 0.0 | 0.00 | 0.00 | 0.00 | 91 | 1017.8 |
| 20260507101547 | 39 | 106 | 0.0 | 0.0 | 0.00 | 0.00 | 0.00 | 91 | 1017.9 |
| 20260507100606 | 39 | 106 | 0.0 | 0.0 | 0.00 | 0.00 | 0.00 | 90 | 1017.9 |
| 20260507100052 | 39 | 106 | 0.0 | 0.0 | 0.00 | 0.00 | 0.00 | 90 | 1018.0 |
| 20260507095555 | 39 | 106 | 0.0 | 0.0 | 0.00 | 0.00 | 0.00 | 90 | 1018.1 |
| 20260507095029 | 39 | 105 | 0.0 | 0.0 | 0.00 | 0.00 | 0.00 | 90 | 1018.0 |
| 20260507094501 | 39 | 106 | 0.0 | 0.0 | 0.00 | 0.00 | 0.00 | 90 | 1018.2 |
| 20260507093959 | 39 | 106 | 0.0 | 0.0 | 0.00 | 0.00 | 0.00 | 89 | 1018.1 |
| 20260507093439 | 40 | 106 | 0.0 | 0.0 | 0.00 | 0.00 | 0.00 | 89 | 1018.1 |
| 20260507092941 | 40 | 106 | 0.0 | 0.0 | 0.00 | 0.00 | 0.00 | 89 | 1018.3 |
| 20260507092428 | 40 | 106 | 0.0 | 0.0 | 0.00 | 0.00 | 0.00 | 90 | 1018.3 |
| 20260507091931 | 40 | 106 | 0.0 | 0.0 | 0.00 | 0.00 | 0.00 | 89 | 1018.0 |
| 20260507091848 | 40 | 106 | 0.0 | 0.0 | 0.00 | 0.00 | 0.00 | 88 | 1017.9 |
| 20260507090901 | 40 | 106 | 0.0 | 0.0 | 0.00 | 0.00 | 0.00 | 88 | 1018.0 |
| 20260507090335 | 40 | 106 | 0.0 | 0.0 | 0.00 | 0.00 | 0.00 | 88 | 1018.0 |
| 20260507085812 | 40 | 106 | 0.0 | 0.0 | 0.00 | 0.00 | 0.00 | 88 | 1018.0 |
| 20260507085308 | 40 | 106 | 0.0 | 0.0 | 0.00 | 0.00 | 0.00 | 88 | 1018.0 |
| 20260507085228 | 41 | 106 | 0.0 | 0.0 | 0.00 | 0.00 | 0.00 | 88 | 1018.1 |
| 20260507084221 | 41 | 106 | 0.0 | 0.0 | 0.00 | 0.00 | 0.00 | 88 | 1017.7 |
| 20260507083717 | 41 | 106 | 0.0 | 0.0 | 0.00 | 0.00 | 0.00 | 87 | 1017.8 |
| 20260507083214 | 41 | 106 | 0.0 | 0.0 | 0.00 | 0.00 | 0.00 | 87 | 1017.7 |
| 20260507082649 | 41 | 106 | 0.0 | 0.0 | 0.00 | 0.00 | 0.00 | 86 | 1017.6 |
| 20260507082147 | 41 | 106 | 0.0 | 0.0 | 0.00 | 0.00 | 0.00 | 86 | 1017.8 |
| 20260507081644 | 41 | 106 | 0.0 | 0.0 | 0.00 | 0.00 | 0.00 | 85 | 1017.8 |
| 20260507081559 | 42 | 106 | 0.0 | 0.0 | 0.00 | 0.00 | 0.00 | 86 | 1017.8 |
| 20260507080543 | 42 | 106 | 0.0 | 0.0 | 0.00 | 0.00 | 0.00 | 86 | 1017.9 |
| 20260507080041 | 42 | 106 | 0.0 | 0.0 | 0.00 | 0.00 | 0.00 | 85 | 1017.7 |
| 20260507075512 | 42 | 106 | 0.0 | 0.0 | 0.00 | 0.00 | 0.00 | 84 | 1017.6 |
| 20260507075009 | 42 | 106 | 0.0 | 0.0 | 0.00 | 0.00 | 0.00 | 84 | 1017.5 |
| 20260507074511 | 42 | 106 | 0.0 | 0.0 | 0.00 | 0.00 | 0.00 | 83 | 1017.5 |
| 20260507074010 | 42 | 105 | 0.0 | 0.0 | 0.00 | 0.00 | 0.00 | 83 | 1017.7 |
| 20260507073512 | 43 | 106 | 0.0 | 0.0 | 0.00 | 0.00 | 0.00 | 83 | 1017.8 |
| 20260507072946 | 43 | 106 | 0.0 | 0.0 | 0.00 | 0.00 | 0.00 | 83 | 1017.8 |
| 20260507072423 | 44 | 106 | 0.0 | 0.0 | 0.00 | 0.00 | 0.00 | 81 | 1017.7 |
| 20260507071906 | 44 | 106 | 0.0 | 0.0 | 0.00 | 0.00 | 0.00 | 81 | 1017.7 |
| 20260507071828 | 44 | 106 | 0.0 | 0.0 | 0.00 | 0.00 | 0.00 | 80 | 1017.7 |
| 20260507070841 | 44 | 106 | 0.0 | 0.0 | 0.00 | 0.00 | 0.00 | 80 | 1018.0 |
| 20260507070324 | 45 | 106 | 0.0 | 0.0 | 0.00 | 0.00 | 0.00 | 79 | 1017.9 |
| 20260507070300 | 45 | 106 | 0.0 | 0.0 | 0.00 | 0.00 | 0.00 | 78 | 1018.0 |
| 20260507065320 | 45 | 106 | 0.0 | 0.0 | 0.00 | 0.00 | 0.00 | 78 | 1018.1 |
| 20260507064821 | 46 | 106 | 0.0 | 0.0 | 0.00 | 0.00 | 0.00 | 77 | 1018.2 |
| 20260507064319 | 46 | 106 | 0.0 | 0.0 | 0.00 | 0.00 | 0.00 | 77 | 1018.2 |
| 20260507063816 | 46 | 106 | 0.0 | 0.0 | 0.00 | 0.00 | 0.00 | 77 | 1018.2 |
| 20260507063313 | 46 | 102 | 0.0 | 0.0 | 0.00 | 0.00 | 0.00 | 77 | 1018.0 |
| 20260507062745 | 46 | 102 | 0.0 | 0.0 | 0.00 | 0.00 | 0.00 | 77 | 1018.0 |
| 20260507062224 | 47 | 113 | 0.0 | 1.0 | 0.00 | 0.00 | 0.00 | 77 | 1017.9 |
| 20260507061710 | 47 | 90 | 0.0 | 1.0 | 0.00 | 0.00 | 0.00 | 77 | 1018.0 |
| 20260507061211 | 47 | 66 | 0.0 | 1.0 | 0.00 | 0.00 | 0.00 | 77 | 1017.9 |
| 20260507061152 | 47 | 169 | 0.0 | 1.0 | 0.00 | 0.00 | 0.00 | 77 | 1018.1 |
| 20260507060642 | 47 | 126 | 0.0 | 1.0 | 0.00 | 0.00 | 0.00 | 77 | 1018.0 |
| 20260507055643 | 47 | 63 | 0.0 | 1.0 | 0.00 | 0.00 | 0.00 | 77 | 1018.1 |
| 20260507055142 | 47 | 72 | 0.0 | 1.0 | 0.00 | 0.00 | 0.00 | 77 | 1018.0 |
| 20260507054643 | 47 | 82 | 0.0 | 1.0 | 0.00 | 0.00 | 0.00 | 77 | 1017.9 |
| 20260507054119 | 47 | 98 | 0.0 | 1.0 | 0.00 | 0.00 | 0.00 | 77 | 1018.0 |
| 20260507053616 | 47 | 66 | 0.0 | 0.0 | 0.00 | 0.00 | 0.00 | 78 | 1017.9 |
| 20260507053112 | 47 | 135 | 0.0 | 0.0 | 0.00 | 0.00 | 0.00 | 77 | 1017.9 |
| 20260507052608 | 47 | 79 | 0.0 | 0.0 | 0.00 | 0.00 | 0.00 | 77 | 1017.9 |
| 20260507052535 | 47 | 58 | 0.0 | 0.0 | 0.00 | 0.00 | 0.00 | 77 | 1017.9 |
| 20260507051539 | 47 | 91 | 0.0 | 0.0 | 0.00 | 0.00 | 0.00 | 77 | 1017.8 |
| 20260507051012 | 47 | 92 | 0.0 | 2.0 | 0.00 | 0.00 | 0.00 | 77 | 1017.8 |
| 20260507050509 | 47 | 92 | 0.0 | 2.0 | 0.00 | 0.00 | 0.00 | 77 | 1017.8 |
| 20260507045941 | 47 | 91 | 0.0 | 1.0 | 0.00 | 0.00 | 0.00 | 77 | 1017.8 |
| 20260507045433 | 47 | 89 | 0.0 | 0.0 | 0.00 | 0.00 | 0.00 | 76 | 1017.8 |
| 20260507044931 | 47 | 89 | 0.0 | 1.0 | 0.00 | 0.00 | 0.00 | 76 | 1017.6 |
| 20260507044403 | 48 | 89 | 0.0 | 1.0 | 0.00 | 0.00 | 0.00 | 75 | 1017.6 |
| 20260507043901 | 48 | 89 | 0.0 | 0.0 | 0.00 | 0.00 | 0.00 | 74 | 1017.6 |
| 20260507043332 | 48 | 89 | 0.0 | 0.0 | 0.00 | 0.00 | 0.00 | 74 | 1017.6 |
| 20260507042829 | 49 | 89 | 0.0 | 1.0 | 0.00 | 0.00 | 0.00 | 73 | 1017.4 |
| 20260507042307 | 49 | 89 | 0.0 | 1.0 | 0.00 | 0.00 | 0.00 | 73 | 1017.5 |
| 20260507041806 | 49 | 84 | 0.0 | 1.0 | 0.00 | 0.00 | 0.00 | 73 | 1017.5 |
| 20260507041751 | 49 | 174 | 0.0 | 1.0 | 0.00 | 0.00 | 0.00 | 73 | 1017.5 |
| 20260507040805 | 49 | 172 | 0.0 | 1.0 | 0.00 | 0.00 | 0.00 | 72 | 1017.4 |
| 20260507040236 | 50 | 113 | 0.0 | 1.0 | 0.00 | 0.00 | 0.00 | 72 | 1017.3 |
| 20260507035733 | 50 | 73 | 0.0 | 1.0 | 0.00 | 0.00 | 0.00 | 72 | 1017.3 |
| 20260507035209 | 50 | 58 | 0.0 | 1.0 | 0.00 | 0.00 | 0.00 | 71 | 1017.1 |
| 20260507034701 | 50 | 95 | 0.0 | 1.0 | 0.00 | 0.00 | 0.00 | 71 | 1017.1 |
| 20260507034159 | 50 | 95 | 0.0 | 1.0 | 0.00 | 0.00 | 0.00 | 71 | 1017.3 |
| 20260507033633 | 51 | 117 | 0.0 | 0.0 | 0.00 | 0.00 | 0.00 | 70 | 1017.1 |
| 20260507033105 | 51 | 198 | 0.0 | 1.0 | 0.00 | 0.00 | 0.00 | 70 | 1017.4 |
| 20260507032602 | 51 | 140 | 0.0 | 1.0 | 0.00 | 0.00 | 0.00 | 69 | 1017.3 |
| 20260507032039 | 51 | 137 | 0.0 | 2.0 | 0.00 | 0.00 | 0.00 | 69 | 1017.3 |
| 20260507031543 | 51 | 134 | 0.0 | 2.0 | 0.00 | 0.00 | 0.00 | 69 | 1017.1 |
| 20260507031038 | 52 | 194 | 0.0 | 3.0 | 0.00 | 0.00 | 0.00 | 69 | 1017.0 |
| 20260507030511 | 52 | 231 | 0.0 | 3.0 | 0.00 | 0.00 | 0.00 | 69 | 1016.9 |
| 20260507030008 | 52 | 117 | 0.0 | 1.0 | 0.00 | 0.00 | 0.00 | 68 | 1016.9 |
| 20260507025450 | 52 | 78 | 0.0 | 1.0 | 0.00 | 0.00 | 0.00 | 68 | 1016.7 |
| 20260507024923 | 52 | 178 | 1.0 | 3.0 | 0.00 | 0.00 | 0.00 | 68 | 1016.7 |
| 20260507024419 | 52 | 72 | 0.0 | 3.0 | 0.00 | 0.00 | 0.00 | 68 | 1016.6 |
| 20260507023919 | 53 | 77 | 0.0 | 2.0 | 0.00 | 0.00 | 0.00 | 69 | 1016.5 |
| 20260507023351 | 53 | 44 | 0.0 | 2.0 | 0.00 | 0.00 | 0.00 | 69 | 1016.5 |
| 20260507022848 | 53 | 119 | 0.0 | 1.0 | 0.00 | 0.00 | 0.00 | 69 | 1016.4 |
| 20260507022347 | 53 | 182 | 0.0 | 4.0 | 0.00 | 0.00 | 0.00 | 69 | 1016.4 |
| 20260507021831 | 53 | 254 | 0.0 | 4.0 | 0.00 | 0.00 | 0.00 | 69 | 1016.4 |
| 20260507021813 | 53 | 208 | 0.0 | 1.0 | 0.00 | 0.00 | 0.00 | 69 | 1016.3 |
| 20260507020806 | 53 | 188 | 0.0 | 1.0 | 0.00 | 0.00 | 0.00 | 68 | 1016.3 |
| 20260507020721 | 53 | 200 | 0.0 | 1.0 | 0.00 | 0.00 | 0.00 | 68 | 1016.3 |
| 20260507015735 | 54 | 131 | 0.0 | 1.0 | 0.00 | 0.00 | 0.00 | 67 | 1016.4 |
| 20260507015718 | 54 | 122 | 0.0 | 1.0 | 0.00 | 0.00 | 0.00 | 67 | 1016.3 |
| 20260507014729 | 54 | 121 | 0.0 | 1.0 | 0.00 | 0.00 | 0.00 | 66 | 1016.1 |
| 20260507014202 | 55 | 151 | 0.0 | 2.0 | 0.00 | 0.00 | 0.00 | 66 | 1016.2 |
| 20260507013656 | 55 | 97 | 0.0 | 2.0 | 0.00 | 0.00 | 0.00 | 65 | 1016.1 |
| 20260507013127 | 55 | 72 | 0.0 | 2.0 | 0.00 | 0.00 | 0.00 | 65 | 1015.9 |
| 20260507012623 | 56 | 86 | 0.0 | 2.0 | 0.00 | 0.00 | 0.00 | 64 | 1016.0 |
| 20260507012603 | 56 | 136 | 0.0 | 1.0 | 0.00 | 0.00 | 0.00 | 63 | 1015.9 |
| 20260507011558 | 56 | 219 | 0.0 | 2.0 | 0.00 | 0.00 | 0.00 | 63 | 1015.7 |
| 20260507011048 | 57 | 77 | 0.0 | 2.0 | 0.00 | 0.00 | 0.00 | 62 | 1015.8 |
| 20260507010547 | 58 | 98 | 0.0 | 2.0 | 0.00 | 0.00 | 0.00 | 61 | 1015.7 |
| 20260507010017 | 58 | 68 | 1.0 | 4.0 | 0.00 | 0.00 | 0.00 | 60 | 1015.7 |
| 20260507005516 | 59 | 101 | 1.0 | 4.0 | 0.00 | 0.00 | 0.00 | 59 | 1015.6 |
| 20260507005431 | 60 | 169 | 1.0 | 3.0 | 0.00 | 0.00 | 0.00 | 58 | 1015.5 |
| 20260507004444 | 60 | 49 | 1.0 | 5.0 | 0.00 | 0.00 | 0.00 | 57 | 1015.5 |
| 20260507003918 | 60 | 59 | 1.0 | 5.0 | 0.00 | 0.00 | 0.00 | 56 | 1015.6 |
| 20260507003415 | 61 | 21 | 1.0 | 6.0 | 0.00 | 0.00 | 0.00 | 56 | 1015.7 |
| 20260507002847 | 60 | 41 | 1.0 | 6.0 | 0.00 | 0.00 | 0.00 | 58 | 1015.7 |
| 20260507002340 | 60 | 63 | 1.0 | 6.0 | 0.00 | 0.00 | 0.00 | 57 | 1015.6 |
| 20260507001825 | 60 | 77 | 2.0 | 6.0 | 0.00 | 0.00 | 0.00 | 57 | 1015.5 |
| 20260507001329 | 60 | 27 | 2.0 | 5.0 | 0.00 | 0.00 | 0.00 | 55 | 1015.4 |
| 20260507000801 | 60 | 84 | 2.0 | 5.0 | 0.00 | 0.00 | 0.00 | 56 | 1015.4 |
| 20260507000259 | 60 | 38 | 3.0 | 7.0 | 0.00 | 0.00 | 0.00 | 55 | 1015.4 |
| 20260507000241 | 61 | 86 | 3.0 | 7.0 | 0.00 | 0.00 | 0.00 | 55 | 1015.5 |
| 20260506235254 | 61 | 106 | 3.0 | 7.0 | 0.00 | 0.00 | 0.00 | 56 | 1015.4 |
| 20260506234753 | 60 | 73 | 3.0 | 9.0 | 0.00 | 0.00 | 0.00 | 56 | 1015.4 |
| 20260506234740 | 60 | 47 | 3.0 | 9.0 | 0.00 | 0.00 | 0.00 | 56 | 1015.4 |
| 20260506233752 | 60 | 23 | 3.0 | 8.0 | 0.00 | 0.00 | 0.00 | 56 | 1015.4 |
| 20260506233254 | 60 | 6 | 2.0 | 5.0 | 0.00 | 0.00 | 0.00 | 57 | 1015.3 |
| 20260506232752 | 60 | 28 | 3.0 | 7.0 | 0.00 | 0.00 | 0.00 | 59 | 1015.3 |
| 20260506232730 | 60 | 61 | 3.0 | 7.0 | 0.00 | 0.00 | 0.00 | 57 | 1015.2 |
| 20260506231721 | 60 | 29 | 3.0 | 5.0 | 0.00 | 0.00 | 0.00 | 59 | 1015.3 |
| 20260506231219 | 60 | 18 | 3.0 | 7.0 | 0.00 | 0.00 | 0.00 | 58 | 1015.3 |
| 20260506230712 | 60 | 96 | 3.0 | 7.0 | 0.00 | 0.00 | 0.00 | 58 | 1015.2 |
| 20260506230208 | 60 | 41 | 3.0 | 9.0 | 0.00 | 0.00 | 0.00 | 59 | 1015.0 |
| 20260506225642 | 60 | 88 | 4.0 | 9.0 | 0.00 | 0.00 | 0.00 | 58 | 1014.9 |
| 20260506225138 | 60 | 141 | 3.0 | 9.0 | 0.00 | 0.00 | 0.00 | 59 | 1014.8 |
| 20260506224612 | 61 | 219 | 2.0 | 9.0 | 0.00 | 0.00 | 0.00 | 60 | 1014.8 |
| 20260506224057 | 60 | 89 | 2.0 | 6.0 | 0.00 | 0.00 | 0.00 | 60 | 1014.6 |
| 20260506224030 | 60 | 79 | 3.0 | 11.0 | 0.00 | 0.00 | 0.00 | 59 | 1014.3 |
| 20260506223028 | 60 | 273 | 4.0 | 11.0 | 0.00 | 0.00 | 0.00 | 58 | 1014.3 |
| 20260506222504 | 60 | 224 | 4.0 | 11.0 | 0.00 | 0.00 | 0.00 | 60 | 1014.2 |
| 20260506222005 | 60 | 33 | 4.0 | 11.0 | 0.00 | 0.00 | 0.00 | 58 | 1014.2 |
| 20260506221504 | 60 | 276 | 4.0 | 11.0 | 0.00 | 0.00 | 0.00 | 62 | 1014.2 |
| 20260506221002 | 60 | 71 | 4.0 | 11.0 | 0.00 | 0.00 | 0.00 | 60 | 1014.0 |
| 20260506220503 | 61 | 24 | 4.0 | 9.0 | 0.00 | 0.00 | 0.00 | 60 | 1014.2 |
| 20260506220000 | 61 | 231 | 3.0 | 9.0 | 0.00 | 0.00 | 0.00 | 61 | 1014.3 |
| 20260506215457 | 61 | 124 | 3.0 | 9.0 | 0.00 | 0.00 | 0.00 | 61 | 1014.5 |
| 20260506214932 | 60 | 117 | 3.0 | 6.0 | 0.00 | 0.00 | 0.00 | 61 | 1014.5 |
| 20260506214433 | 60 | 165 | 3.0 | 6.0 | 0.00 | 0.00 | 0.00 | 63 | 1014.5 |
| 20260506214343 | 60 | 141 | 4.0 | 7.0 | 0.00 | 0.00 | 0.00 | 62 | 1014.5 |
| 20260506213353 | 60 | 28 | 4.0 | 9.0 | 0.00 | 0.00 | 0.00 | 62 | 1014.6 |
| 20260506212851 | 60 | 133 | 3.0 | 10.0 | 0.00 | 0.00 | 0.00 | 61 | 1014.6 |
| 20260506212348 | 60 | 115 | 2.0 | 10.0 | 0.00 | 0.00 | 0.00 | 65 | 1014.7 |
| 20260506211819 | 60 | 113 | 3.0 | 9.0 | 0.00 | 0.00 | 0.00 | 64 | 1014.6 |
| 20260506211253 | 59 | 34 | 4.0 | 9.0 | 0.00 | 0.00 | 0.00 | 62 | 1014.6 |
| 20260506210725 | 60 | 45 | 4.0 | 8.0 | 0.00 | 0.00 | 0.00 | 63 | 1014.7 |
| 20260506210222 | 60 | 283 | 3.0 | 8.0 | 0.00 | 0.00 | 0.00 | 63 | 1014.8 |
| 20260506205655 | 60 | 32 | 3.0 | 9.0 | 0.00 | 0.00 | 0.00 | 64 | 1015.0 |
| 20260506205152 | 59 | 33 | 2.0 | 9.0 | 0.00 | 0.00 | 0.00 | 65 | 1015.0 |
| 20260506204640 | 59 | 89 | 4.0 | 9.0 | 0.00 | 0.00 | 0.00 | 63 | 1015.1 |
| 20260506204143 | 60 | 42 | 4.0 | 9.0 | 0.00 | 0.00 | 0.00 | 63 | 1015.0 |
| 20260506203620 | 59 | 85 | 4.0 | 8.0 | 0.00 | 0.00 | 0.00 | 65 | 1015.0 |
| 20260506203110 | 59 | 122 | 4.0 | 9.0 | 0.00 | 0.00 | 0.00 | 62 | 1015.2 |
| 20260506202557 | 59 | 18 | 4.0 | 9.0 | 0.00 | 0.00 | 0.00 | 62 | 1015.4 |
| 20260506202101 | 60 | 6 | 4.0 | 9.0 | 0.00 | 0.00 | 0.00 | 61 | 1015.4 |
| 20260506201533 | 60 | 25 | 3.0 | 9.0 | 0.00 | 0.00 | 0.00 | 60 | 1015.4 |
| 20260506201031 | 60 | 282 | 3.0 | 9.0 | 0.00 | 0.00 | 0.00 | 61 | 1015.4 |
| 20260506200945 | 59 | 62 | 3.0 | 9.0 | 0.00 | 0.00 | 0.00 | 62 | 1015.6 |
| 20260506200000 | 60 | 89 | 3.0 | 7.0 | 0.00 | 0.00 | 0.00 | 62 | 1015.7 |
| 20260506195918 | 60 | 100 | 3.0 | 9.0 | 0.00 | 0.00 | 0.00 | 64 | 1015.7 |
| 20260506194929 | 59 | 63 | 3.0 | 9.0 | 0.00 | 0.01 | 0.00 | 62 | 1015.8 |
| 20260506194401 | 59 | 340 | 3.0 | 7.0 | 0.00 | 0.01 | 0.00 | 62 | 1015.8 |
| 20260506193856 | 60 | 63 | 3.0 | 7.0 | 0.00 | 0.01 | 0.00 | 63 | 1016.0 |
| 20260506193357 | 60 | 72 | 3.0 | 9.0 | 0.00 | 0.01 | 0.00 | 62 | 1016.0 |
| 20260506192833 | 60 | 46 | 3.0 | 9.0 | 0.00 | 0.01 | 0.00 | 66 | 1016.0 |
| 20260506192332 | 59 | 86 | 2.0 | 7.0 | 0.00 | 0.01 | 0.00 | 66 | 1015.8 |
| 20260506191800 | 59 | 91 | 2.0 | 7.0 | 0.00 | 0.01 | 0.00 | 66 | 1016.0 |
| 20260506191257 | 59 | 23 | 2.0 | 7.0 | 0.00 | 0.01 | 0.00 | 64 | 1016.1 |
| 20260506190741 | 58 | 49 | 3.0 | 7.0 | 0.00 | 0.01 | 0.00 | 65 | 1016.0 |
| 20260506190715 | 58 | 61 | 3.0 | 7.0 | 0.00 | 0.01 | 0.00 | 66 | 1016.2 |
| 20260506185718 | 58 | 92 | 3.0 | 7.0 | 0.00 | 0.01 | 0.00 | 66 | 1016.2 |
| 20260506185153 | 58 | 30 | 3.0 | 9.0 | 0.00 | 0.01 | 0.00 | 66 | 1016.1 |
| 20260506184654 | 58 | 55 | 3.0 | 9.0 | 0.00 | 0.01 | 0.00 | 66 | 1016.2 |
| 20260506184128 | 58 | 81 | 3.0 | 7.0 | 0.00 | 0.01 | 0.00 | 68 | 1016.2 |
| 20260506183625 | 58 | 35 | 3.0 | 6.0 | 0.00 | 0.01 | 0.00 | 66 | 1016.4 |
| 20260506183059 | 58 | 234 | 3.0 | 10.0 | 0.00 | 0.01 | 0.00 | 66 | 1016.6 |
| 20260506182531 | 58 | 85 | 3.0 | 10.0 | 0.00 | 0.01 | 0.00 | 67 | 1016.6 |
| 20260506182029 | 57 | 100 | 2.0 | 6.0 | 0.00 | 0.01 | 0.00 | 67 | 1016.7 |
| 20260506181503 | 57 | 117 | 1.0 | 5.0 | 0.00 | 0.01 | 0.00 | 68 | 1017.0 |
| 20260506180936 | 57 | 113 | 1.0 | 4.0 | 0.00 | 0.01 | 0.00 | 68 | 1017.0 |
| 20260506180433 | 57 | 36 | 2.0 | 5.0 | 0.00 | 0.01 | 0.00 | 68 | 1017.0 |
| 20260506175907 | 56 | 123 | 2.0 | 7.0 | 0.00 | 0.02 | 0.00 | 68 | 1017.4 |
| 20260506175401 | 56 | 236 | 3.0 | 7.0 | 0.00 | 0.02 | 0.00 | 70 | 1017.4 |
| 20260506174859 | 56 | 39 | 4.0 | 8.0 | 0.00 | 0.02 | 0.00 | 68 | 1017.5 |
| 20260506174331 | 56 | 42 | 3.0 | 8.0 | 0.00 | 0.02 | 0.00 | 68 | 1017.6 |
| 20260506173803 | 56 | 186 | 2.0 | 6.0 | 0.00 | 0.02 | 0.00 | 69 | 1017.8 |
| 20260506173300 | 56 | 56 | 1.0 | 3.0 | 0.00 | 0.02 | 0.00 | 70 | 1017.9 |
| 20260506172732 | 55 | 89 | 2.0 | 5.0 | 0.00 | 0.02 | 0.00 | 69 | 1017.8 |
| 20260506172232 | 55 | 138 | 3.0 | 7.0 | 0.00 | 0.02 | 0.00 | 71 | 1017.7 |
| 20260506171729 | 55 | 85 | 3.0 | 7.0 | 0.00 | 0.02 | 0.00 | 69 | 1017.8 |
| 20260506171201 | 54 | 52 | 2.0 | 6.0 | 0.00 | 0.02 | 0.00 | 70 | 1017.8 |
| 20260506170701 | 55 | 96 | 1.0 | 6.0 | 0.00 | 0.02 | 0.00 | 70 | 1017.9 |
| 20260506170135 | 54 | 128 | 2.0 | 5.0 | 0.00 | 0.02 | 0.00 | 73 | 1017.8 |
| 20260506165634 | 53 | 86 | 3.0 | 9.0 | 0.00 | 0.02 | 0.00 | 72 | 1017.8 |
| 20260506165552 | 53 | 108 | 3.0 | 9.0 | 0.00 | 0.02 | 0.00 | 72 | 1017.7 |
| 20260506164543 | 53 | 69 | 3.0 | 9.0 | 0.00 | 0.02 | 0.00 | 72 | 1017.4 |
| 20260506164457 | 53 | 78 | 3.0 | 9.0 | 0.00 | 0.02 | 0.00 | 72 | 1017.3 |
| 20260506163510 | 53 | 20 | 3.0 | 8.0 | 0.00 | 0.02 | 0.00 | 72 | 1017.3 |
| 20260506162942 | 53 | 212 | 4.0 | 8.0 | 0.00 | 0.02 | 0.00 | 73 | 1017.0 |
| 20260506162416 | 53 | 98 | 4.0 | 11.0 | 0.00 | 0.02 | 0.00 | 71 | 1017.0 |
| 20260506161851 | 53 | 41 | 5.0 | 11.0 | 0.00 | 0.02 | 0.00 | 72 | 1016.7 |
| 20260506161812 | 53 | 66 | 6.0 | 13.0 | 0.00 | 0.02 | 0.00 | 73 | 1016.7 |
| 20260506160821 | 53 | 42 | 5.0 | 12.0 | 0.00 | 0.02 | 0.00 | 73 | 1016.6 |
| 20260506160259 | 53 | 65 | 4.0 | 9.0 | 0.00 | 0.02 | 0.00 | 74 | 1016.7 |
| 20260506160244 | 52 | 23 | 5.0 | 11.0 | 0.00 | 0.02 | 0.00 | 76 | 1016.6 |
| 20260506155241 | 52 | 49 | 5.0 | 11.0 | 0.00 | 0.02 | 0.00 | 76 | 1016.5 |
| 20260506155223 | 52 | 70 | 4.0 | 10.0 | 0.00 | 0.02 | 0.00 | 76 | 1016.6 |
| 20260506154212 | 51 | 25 | 4.0 | 10.0 | 0.00 | 0.02 | 0.00 | 78 | 1016.5 |
| 20260506154150 | 51 | 72 | 4.0 | 9.0 | 0.00 | 0.02 | 0.00 | 77 | 1016.3 |
| 20260506153631 | 51 | 167 | 4.0 | 8.0 | 0.00 | 0.02 | 0.00 | 78 | 1016.3 |
| 20260506152615 | 51 | 20 | 4.0 | 10.0 | 0.00 | 0.02 | 0.00 | 77 | 1016.4 |
| 20260506152113 | 50 | 134 | 4.0 | 10.0 | 0.00 | 0.02 | 0.00 | 77 | 1016.5 |
| 20260506151604 | 50 | 44 | 4.0 | 10.0 | 0.00 | 0.02 | 0.00 | 77 | 1016.5 |
| 20260506151549 | 50 | 70 | 4.0 | 10.0 | 0.00 | 0.02 | 0.00 | 78 | 1016.5 |
| 20260506150602 | 50 | 55 | 5.0 | 9.0 | 0.00 | 0.02 | 0.00 | 77 | 1016.7 |
| 20260506150057 | 50 | 26 | 5.0 | 9.0 | 0.00 | 0.02 | 0.00 | 77 | 1016.6 |
| 20260506145533 | 50 | 130 | 5.0 | 10.0 | 0.00 | 0.02 | 0.00 | 79 | 1016.2 |
| 20260506145006 | 50 | 58 | 5.0 | 10.0 | 0.00 | 0.02 | 0.00 | 78 | 1016.2 |